Вернуться в каталог

ATLAS 5 CENTAUR DEB

АктивенHEO
NORAD 46602·DEBRIS·🇺🇸 United States

Запущен Oct 17, 2018 с Cape Canaveral Space Force Station

Loading…

Ближайшие Пролёты (ближайшие 24 часа)

TLE

СвежийSource: Space-Track

Эпоха: Sep 8, 2026, 11:56 UTC

1 46602U 18079CA  26251.49743763 -.00000178  00000-0  00000-0 0  9999
2 46602  13.5966  32.3140 4672383 315.5819  15.1666  1.79049432 41478

Отслеживайте ATLAS 5 CENTAUR DEB в реальном времени с AllMySat

Download on the App Store